Precipitable_Water
0.80 0.77 0.75 0.74 0.72 0.69 0.68 0.67 0.67 0.70 0.68 0.64 0.62 0.66 0.75 0.81 0.84 0.79 0.63 0.77 0.83 0.90 0.83 0.75 0.69 0.64 0.69 0.62 0.67 0.67 0.40 0.30 0.35 0.37 0.42 0.53 0.49 0.60 0.63 0.55 0.53 0.53 0.53 0.56 0.60
0.83 0.82 0.77 0.73 0.72 0.69 0.67 0.66 0.65 0.69 0.70 0.68 0.64 0.68 0.76 0.84 0.75 0.63 0.84 0.85 0.84 0.82 0.66 0.60 0.55 0.59 0.55 0.58 0.61 0.51 0.37 0.37 0.45 0.46 0.45 0.50 0.50 0.52 0.52 0.50 0.48 0.51 0.55 0.57 0.61
0.86 0.84 0.83 0.78 0.73 0.71 0.69 0.66 0.63 0.67 0.71 0.68 0.68 0.72 0.75 0.80 0.57 0.61 0.92 0.83 0.73 0.75 0.69 0.65 0.64 0.58 0.50 0.56 0.53 0.50 0.37 0.45 0.46 0.51 0.53 0.49 0.51 0.54 0.50 0.45 0.47 0.46 0.50 0.54 0.57
0.89 0.84 0.83 0.83 0.78 0.72 0.68 0.66 0.65 0.67 0.71 0.69 0.74 0.73 0.75 0.66 0.27 0.72 0.80 0.73 0.69 0.70 0.62 0.58 0.55 0.47 0.46 0.44 0.55 0.41 0.48 0.50 0.50 0.52 0.52 0.47 0.51 0.47 0.47 0.42 0.44 0.49 0.50 0.51 0.52
0.84 0.88 0.85 0.82 0.80 0.77 0.71 0.66 0.64 0.68 0.72 0.70 0.79 0.79 0.68 0.49 0.45 0.71 0.70 0.68 0.62 0.56 0.52 0.51 0.47 0.49 0.42 0.47 0.51 0.45 0.48 0.49 0.49 0.50 0.51 0.50 0.45 0.44 0.40 0.46 0.46 0.45 0.45 0.45 0.46
0.79 0.84 0.86 0.88 0.83 0.79 0.74 0.69 0.64 0.64 0.76 0.73 0.78 0.81 0.61 0.32 0.64 0.67 0.65 0.60 0.53 0.45 0.48 0.52 0.50 0.54 0.48 0.47 0.46 0.48 0.46 0.47 0.46 0.44 0.41 0.36 0.36 0.38 0.39 0.42 0.40 0.39 0.39 0.41 0.41
0.79 0.76 0.79 0.81 0.84 0.82 0.77 0.72 0.65 0.62 0.76 0.79 0.77 0.77 0.56 0.46 0.62 0.61 0.53 0.51 0.49 0.44 0.40 0.54 0.56 0.51 0.50 0.43 0.49 0.44 0.37 0.39 0.41 0.37 0.34 0.36 0.26 0.26 0.33 0.38 0.36 0.37 0.35 0.36 0.39
0.83 0.82 0.74 0.75 0.76 0.78 0.79 0.74 0.67 0.63 0.74 0.81 0.82 0.70 0.43 0.65 0.68 0.57 0.49 0.39 0.43 0.47 0.45 0.51 0.57 0.50 0.41 0.43 0.36 0.29 0.29 0.20 0.27 0.35 0.33 0.30 0.20 0.27 0.32 0.32 0.32 0.33 0.32 0.32 0.35
0.79 0.79 0.81 0.76 0.74 0.74 0.74 0.73 0.67 0.66 0.75 0.79 0.68 0.58 0.38 0.67 0.54 0.56 0.46 0.36 0.39 0.42 0.44 0.46 0.46 0.39 0.37 0.28 0.24 0.25 0.19 0.22 0.26 0.36 0.32 0.28 0.22 0.28 0.33 0.33 0.32 0.32 0.30 0.29 0.31
0.74 0.79 0.82 0.83 0.79 0.79 0.77 0.71 0.69 0.71 0.73 0.76 0.71 0.50 0.50 0.43 0.52 0.48 0.45 0.42 0.38 0.40 0.37 0.36 0.35 0.29 0.28 0.24 0.18 0.22 0.23 0.23 0.23 0.29 0.30 0.27 0.25 0.28 0.32 0.32 0.30 0.33 0.32 0.31 0.30
0.72 0.79 0.80 0.82 0.81 0.83 0.77 0.65 0.53 0.54 0.61 0.43 0.44 0.43 0.45 0.52 0.53 0.42 0.41 0.37 0.38 0.37 0.29 0.34 0.28 0.23 0.25 0.25 0.31 0.28 0.24 0.22 0.23 0.28 0.25 0.24 0.25 0.26 0.29 0.31 0.31 0.31 0.34 0.31 0.28
0.64 0.70 0.80 0.79 0.81 0.77 0.75 0.54 0.50 0.56 0.41 0.49 0.50 0.53 0.54 0.51 0.38 0.38 0.39 0.27 0.29 0.24 0.33 0.31 0.25 0.29 0.33 0.34 0.30 0.27 0.24 0.22 0.24 0.25 0.23 0.23 0.23 0.25 0.27 0.28 0.31 0.32 0.33 0.32 0.30
0.60 0.61 0.69 0.72 0.75 0.64 0.58 0.58 0.70 0.63 0.42 0.39 0.41 0.40 0.47 0.49 0.36 0.33 0.36 0.29 0.25 0.24 0.27 0.25 0.27 0.31 0.31 0.30 0.28 0.25 0.21 0.21 0.21 0.24 0.25 0.22 0.20 0.23 0.27 0.29 0.30 0.31 0.32 0.32 0.32
0.56 0.57 0.62 0.79 0.62 0.57 0.49 0.64 0.67 0.63 0.31 0.32 0.35 0.38 0.43 0.47 0.36 0.42 0.40 0.30 0.27 0.23 0.27 0.27 0.30 0.29 0.29 0.26 0.26 0.20 0.25 0.24 0.23 0.21 0.17 0.23 0.14 0.20 0.23 0.25 0.28 0.29 0.30 0.31 0.33
0.55 0.54 0.60 0.73 0.64 0.47 0.56 0.62 0.70 0.59 0.19 0.35 0.40 0.51 0.47 0.40 0.37 0.37 0.42 0.33 0.23 0.23 0.25 0.22 0.26 0.27 0.26 0.26 0.27 0.23 0.26 0.24 0.23 0.21 0.20 0.19 0.16 0.19 0.23 0.22 0.26 0.28 0.29 0.30 0.33
0.57 0.50 0.58 0.60 0.73 0.64 0.71 0.67 0.66 0.34 0.19 0.31 0.39 0.37 0.37 0.39 0.37 0.38 0.36 0.37 0.32 0.25 0.25 0.25 0.30 0.29 0.28 0.28 0.28 0.28 0.24 0.24 0.24 0.21 0.15 0.17 0.18 0.19 0.20 0.22 0.25 0.27 0.30 0.29 0.30
0.67 0.57 0.54 0.68 0.55 0.70 0.73 0.60 0.28 0.24 0.32 0.29 0.31 0.36 0.36 0.34 0.34 0.34 0.31 0.28 0.23 0.19 0.19 0.23 0.25 0.29 0.30 0.26 0.28 0.25 0.22 0.17 0.17 0.16 0.13 0.23 0.20 0.20 0.22 0.24 0.25 0.24 0.28 0.29 0.29
0.74 0.63 0.54 0.66 0.76 0.75 0.67 0.42 0.20 0.31 0.30 0.35 0.34 0.34 0.30 0.33 0.33 0.33 0.30 0.25 0.28 0.26 0.21 0.19 0.18 0.26 0.30 0.27 0.23 0.23 0.22 0.19 0.12 0.15 0.17 0.21 0.17 0.20 0.25 0.27 0.28 0.28 0.29 0.29 0.29
0.72 0.62 0.52 0.60 0.78 0.69 0.46 0.27 0.23 0.33 0.38 0.34 0.34 0.30 0.29 0.31 0.30 0.30 0.27 0.25 0.26 0.28 0.23 0.21 0.21 0.29 0.29 0.29 0.27 0.22 0.20 0.26 0.19 0.19 0.15 0.16 0.20 0.24 0.25 0.27 0.28 0.28 0.29 0.28 0.28
0.59 0.55 0.47 0.58 0.73 0.60 0.40 0.28 0.29 0.37 0.42 0.43 0.30 0.32 0.26 0.27 0.28 0.28 0.26 0.30 0.29 0.32 0.37 0.29 0.20 0.26 0.27 0.28 0.28 0.25 0.27 0.19 0.19 0.13 0.12 0.16 0.17 0.19 0.21 0.22 0.24 0.25 0.26 0.27 0.28
0.55 0.42 0.49 0.58 0.72 0.51 0.29 0.27 0.33 0.38 0.40 0.38 0.37 0.33 0.32 0.29 0.30 0.28 0.28 0.30 0.33 0.35 0.38 0.35 0.26 0.23 0.26 0.23 0.22 0.23 0.21 0.22 0.23 0.21 0.14 0.12 0.15 0.22 0.22 0.23 0.23 0.26 0.27 0.28 0.29
0.50 0.33 0.59 0.65 0.35 0.41 0.29 0.37 0.33 0.34 0.43 0.44 0.43 0.39 0.35 0.33 0.30 0.30 0.30 0.33 0.37 0.36 0.29 0.33 0.26 0.19 0.22 0.28 0.28 0.26 0.22 0.23 0.18 0.16 0.19 0.18 0.16 0.24 0.25 0.26 0.25 0.24 0.27 0.28 0.29
0.41 0.42 0.62 0.62 0.27 0.30 0.32 0.31 0.35 0.37 0.42 0.44 0.40 0.41 0.43 0.37 0.31 0.33 0.34 0.41 0.39 0.35 0.31 0.33 0.25 0.19 0.20 0.24 0.27 0.23 0.24 0.24 0.24 0.23 0.17 0.15 0.16 0.26 0.26 0.26 0.28 0.28 0.29 0.30 0.30
0.43 0.30 0.41 0.44 0.44 0.35 0.30 0.33 0.35 0.42 0.44 0.47 0.44 0.46 0.41 0.39 0.42 0.36 0.33 0.37 0.39 0.38 0.39 0.36 0.28 0.22 0.17 0.21 0.22 0.19 0.22 0.25 0.22 0.17 0.17 0.17 0.20 0.24 0.25 0.26 0.28 0.29 0.31 0.32 0.31
0.43 0.32 0.37 0.25 0.34 0.35 0.37 0.32 0.35 0.36 0.48 0.49 0.42 0.40 0.40 0.34 0.38 0.36 0.36 0.36 0.39 0.38 0.35 0.31 0.24 0.28 0.27 0.29 0.26 0.23 0.22 0.22 0.20 0.20 0.16 0.19 0.21 0.24 0.26 0.28 0.30 0.32 0.32 0.32 0.32
0.39 0.34 0.37 0.34 0.35 0.34 0.34 0.32 0.30 0.33 0.34 0.34 0.31 0.38 0.43 0.39 0.37 0.35 0.38 0.36 0.32 0.37 0.36 0.36 0.26 0.29 0.27 0.30 0.27 0.23 0.24 0.22 0.22 0.22 0.22 0.24 0.23 0.31 0.31 0.32 0.31 0.32 0.32 0.30 0.29
0.52 0.49 0.38 0.35 0.36 0.31 0.31 0.36 0.37 0.41 0.41 0.43 0.43 0.43 0.41 0.43 0.51 0.47 0.44 0.41 0.39 0.36 0.35 0.33 0.31 0.29 0.24 0.29 0.27 0.21 0.23 0.24 0.25 0.27 0.27 0.23 0.27 0.31 0.29 0.30 0.30 0.30 0.31 0.30 0.31
Wind_Speed
19 19 19 19 18 18 18 17 17 16 15 15 14 14 13 12 12 12 13 13 13 12 12 12 12 13 13 14 14 14 14 15 17 14 17 16 15 15 16 15 16 17 16 16 18
20 20 20 20 20 19 19 19 18 17 17 16 15 14 13 13 13 14 13 13 14 14 12 12 11 12 12 13 13 13 14 16 14 14 17 17 16 17 18 17 17 16 16 17 19
23 23 22 22 21 21 20 20 19 18 18 17 16 15 14 13 13 14 14 13 12 12 13 14 12 12 13 12 13 15 14 15 14 14 14 16 18 18 18 20 23 22 21 20 21
26 25 25 24 23 22 22 21 20 19 19 18 16 16 15 14 12 12 12 12 11 12 12 12 12 11 12 12 13 12 15 16 14 15 17 16 18 18 20 20 22 23 22 22 22
28 28 27 26 26 25 24 23 21 20 19 18 17 17 16 16 15 15 13 13 12 12 12 11 12 11 10 11 10 11 12 12 12 14 17 18 18 20 20 21 18 20 21 22 22
31 30 29 29 28 27 26 25 23 22 20 19 19 19 18 18 16 15 15 15 14 13 13 12 11 12 11 10 10 9 10 12 12 13 14 16 18 18 20 20 19 20 21 23 22
31 31 31 31 30 29 28 27 26 25 23 21 21 21 21 21 18 16 15 15 15 13 13 13 12 10 10 9 11 10 11 12 13 13 13 12 17 19 21 19 20 21 23 23 23
33 32 32 32 32 31 31 30 29 27 26 24 23 22 23 20 21 19 17 15 15 14 13 13 13 11 9 10 8 8 9 10 12 11 11 9 15 13 17 18 20 21 22 23 23
36 35 34 33 33 33 33 32 31 30 28 27 25 23 24 22 22 21 19 17 15 14 14 13 13 12 10 9 8 9 9 9 8 10 9 10 13 13 13 15 18 20 21 22 22
38 37 37 36 36 35 35 34 32 30 30 29 29 25 25 23 21 21 20 19 17 15 14 14 13 12 11 10 10 9 10 9 8 10 10 11 14 13 13 15 17 20 20 22 22
41 41 39 38 37 36 36 34 32 31 32 30 28 26 23 21 21 21 22 20 18 17 17 16 14 16 16 15 10 8 9 10 8 9 9 13 15 16 17 18 18 18 20 22 22
42 41 41 38 36 35 33 32 32 32 34 35 37 34 27 26 24 24 23 21 21 20 19 15 18 17 16 17 13 11 11 11 9 9 11 13 16 17 17 18 19 19 19 21 19
41 39 38 37 34 32 31 30 29 30 32 35 35 36 33 30 28 28 26 23 22 22 21 18 16 16 14 13 13 13 12 11 10 11 14 13 15 12 13 13 16 17 17 17 18
42 39 36 34 32 30 27 25 25 25 28 32 31 32 35 29 29 29 29 24 23 24 22 21 19 17 16 15 14 13 12 11 10 9 11 9 12 13 11 10 12 16 16 17 17
39 38 36 34 30 27 24 22 22 20 23 23 27 28 31 31 26 28 28 24 23 22 21 20 19 18 17 16 15 13 11 10 10 10 11 12 11 13 9 11 12 14 16 16 17
37 36 35 33 34 28 24 21 19 18 24 22 23 26 29 31 27 26 26 23 23 22 19 20 18 17 16 13 13 12 10 9 9 8 9 12 8 10 9 11 10 11 13 14 14
37 35 35 32 31 30 24 20 19 22 21 22 22 26 29 28 26 26 27 26 24 20 22 19 19 17 17 14 13 13 9 9 8 8 10 8 7 12 12 10 10 10 13 13 13
35 34 35 34 31 29 25 21 23 22 23 19 20 24 26 27 26 27 26 28 28 23 21 20 19 21 20 18 16 16 14 11 10 8 8 7 9 9 7 8 10 11 13 13 13
37 32 33 33 33 32 27 26 25 22 20 22 18 21 24 27 23 24 26 26 28 28 20 19 18 17 16 16 15 16 14 13 8 9 7 9 9 9 7 6 8 10 12 13 13
33 32 32 34 33 32 29 30 28 26 19 16 26 24 23 26 24 23 25 24 24 30 22 19 15 18 17 16 16 14 15 10 10 8 10 9 8 9 9 7 9 10 12 13 14
27 28 27 32 32 31 31 29 27 27 24 20 21 23 24 23 24 22 22 18 25 23 23 19 16 16 16 19 19 16 15 12 11 10 9 8 10 9 10 10 10 11 13 14 16
23 25 25 29 32 29 31 29 27 23 27 23 20 22 23 23 23 24 22 19 20 22 22 20 17 17 19 16 17 19 18 16 13 14 11 9 13 10 9 11 10 13 14 15 16
21 23 23 26 29 31 28 32 28 26 22 24 24 24 20 22 19 21 22 20 20 20 21 22 17 14 14 16 17 19 19 17 15 13 14 10 13 12 11 10 11 13 15 16 17
16 20 22 25 25 28 30 27 29 28 24 23 22 24 22 21 21 21 19 19 20 19 20 19 17 17 17 16 15 18 19 19 17 14 14 16 13 14 15 14 13 14 14 15 16
17 18 18 20 28 27 24 25 25 24 26 23 20 23 26 23 22 22 21 20 19 20 19 19 18 17 15 15 14 16 17 19 20 18 16 16 19 18 18 17 17 18 17 16 17
17 17 18 16 23 24 28 28 33 29 27 26 25 26 26 27 26 24 24 24 22 21 20 19 18 17 18 18 17 18 19 20 21 20 22 20 19 19 18 17 16 16 17 16 18
19 17 14 15 15 23 24 20 29 25 27 26 25 18 25 29 31 28 28 26 24 23 22 21 19 17 19 17 16 20 23 23 21 20 20 19 19 16 16 17 18 17 17 17 19
Wind_Direction
303 304 303 302 302 302 300 298 296 292 288 282 276 268 262 253 247 242 242 243 245 251 249 244 243 237 236 238 238 241 247 248 248 252 246 240 240 245 244 237 239 240 232 222 216
300 300 301 301 301 299 298 296 293 290 286 280 273 264 255 251 250 249 245 247 248 249 239 237 240 234 237 237 241 240 244 246 250 251 250 245 244 238 243 240 240 238 233 222 222
294 295 295 297 298 298 297 294 291 288 284 277 270 260 253 254 250 248 243 249 245 237 237 241 240 232 237 239 240 242 244 246 252 250 254 248 247 246 245 247 239 234 234 230 229
291 291 291 292 293 295 294 294 289 286 281 274 265 255 252 251 248 244 243 237 238 235 239 236 236 229 234 238 240 249 248 252 249 253 254 255 254 251 246 247 248 233 231 231 231
290 288 287 287 289 290 290 290 287 283 278 270 261 253 252 251 249 245 243 239 238 235 233 232 227 226 233 238 245 244 255 253 250 255 257 258 255 253 252 248 242 230 230 231 231
290 287 284 285 285 286 286 285 283 279 274 267 260 254 251 252 244 243 243 239 237 232 232 227 228 234 243 247 238 254 260 257 255 256 261 256 256 254 250 242 237 232 231 233 232
290 288 284 284 283 282 283 282 279 274 268 265 259 254 252 250 242 242 240 237 232 231 231 225 231 231 243 245 251 256 268 270 261 257 262 259 265 254 246 240 235 235 235 234 232
289 287 284 283 281 279 280 279 276 270 264 260 258 255 251 246 240 241 237 232 228 227 228 227 229 233 238 244 257 254 260 267 271 246 258 261 270 265 247 238 234 235 237 234 233
286 285 284 283 282 280 279 278 272 266 260 256 255 250 252 242 238 236 231 227 223 224 226 224 225 230 235 237 254 253 256 254 271 245 258 261 274 277 245 240 237 235 235 232 231
283 282 281 280 279 279 279 276 267 262 256 253 251 252 243 240 235 228 226 221 223 219 223 223 227 231 234 232 240 244 253 260 251 251 254 262 269 270 258 243 243 239 235 233 235
281 278 277 277 277 278 276 273 264 258 250 244 244 243 238 233 227 227 223 221 223 223 225 227 228 230 229 228 237 246 255 266 269 266 261 266 272 266 257 249 246 242 234 235 235
280 278 275 274 274 275 274 266 261 256 254 245 245 240 236 229 231 228 220 222 222 224 224 229 234 231 231 231 234 246 255 262 271 267 273 276 274 269 259 248 242 240 238 236 233
278 277 274 270 269 268 267 263 258 256 251 243 240 236 233 227 230 226 219 224 224 225 224 224 233 221 225 227 232 246 249 256 262 270 274 286 285 279 261 256 239 241 239 234 226
274 272 271 264 263 262 261 258 258 256 248 241 234 234 223 224 233 223 220 222 226 224 224 229 227 222 226 232 233 240 250 251 266 277 270 275 281 285 273 252 242 238 239 231 225
273 267 264 255 257 255 256 253 253 251 243 239 222 226 218 219 222 221 219 224 222 222 219 228 219 222 229 234 229 240 243 252 263 270 285 282 281 278 262 254 246 242 233 224 223
270 265 258 255 248 250 247 247 249 241 236 232 220 219 212 218 221 215 216 220 221 222 223 223 224 223 224 229 227 224 239 257 266 271 283 275 266 279 254 246 246 234 219 215 216
266 262 251 249 245 239 238 240 241 235 234 228 222 216 213 215 216 215 214 217 217 216 221 222 223 225 219 222 231 232 233 257 267 272 264 281 278 268 258 247 234 222 212 209 209
262 258 248 244 239 228 232 235 235 239 230 227 220 211 212 209 217 214 212 217 222 221 214 216 226 218 224 227 227 224 225 231 235 246 268 287 271 275 269 252 229 219 211 214 218
253 255 246 238 229 226 227 230 225 224 232 231 213 210 217 212 214 212 214 218 218 214 214 214 222 221 222 226 219 224 228 233 239 266 275 267 278 285 278 269 223 213 210 218 227
249 248 244 229 225 223 224 231 226 227 229 246 222 215 212 209 212 208 209 217 215 211 215 215 214 220 222 221 223 224 219 231 248 244 257 271 265 269 254 244 218 216 221 231 239
246 240 237 221 216 223 225 227 224 228 232 226 229 219 218 212 209 209 213 219 209 207 209 214 216 221 219 224 219 222 226 233 232 242 244 263 269 268 243 238 234 237 238 244 252
238 231 223 213 217 221 224 221 228 230 227 226 228 219 219 209 209 211 213 216 205 201 206 214 215 217 222 227 224 225 226 227 235 248 252 257 272 265 247 247 244 245 248 252 262
230 223 217 216 220 221 224 226 227 221 222 217 224 219 219 212 208 208 209 214 199 203 205 211 220 217 233 236 233 230 229 231 236 246 246 248 267 254 254 251 249 253 260 265 269
231 218 219 219 223 220 219 221 222 226 221 220 221 225 222 216 214 204 204 207 208 209 208 208 216 216 218 224 221 228 230 230 233 244 248 253 257 256 251 257 262 262 265 269 276
225 217 215 221 222 219 221 218 214 215 212 214 223 216 220 216 214 211 210 207 210 209 214 215 219 221 223 222 226 227 230 228 235 242 246 259 252 253 251 256 260 265 271 276 278
221 214 216 227 219 214 221 222 220 222 218 223 227 223 222 222 220 215 210 214 217 217 216 223 225 224 228 228 235 241 240 238 244 249 258 261 265 259 254 260 264 264 269 272 279
213 212 212 216 217 212 215 220 218 218 223 224 221 221 222 224 227 228 222 219 217 214 216 218 220 225 232 230 241 253 243 237 244 248 247 251 256 255 257 258 259 264 270 276 284